Stations météo

réclame
Mon MeteoGroup
Mildenhall Royal Air Force Bas, Grande-Bretagne (3577): Température de l'air & dewpoint: 12.01.2019 12:00:00 - 18.01.2019 12:00:00 (GMT)Mildenhall Royal Air Force Bas, Grande-Bretagne (3577): Vitesse du vent & gusts: 12.01.2019 12:00:00 - 18.01.2019 12:00:00 (GMT)Mildenhall Royal Air Force Bas, Grande-Bretagne (3577): Direction du vent: 12.01.2019 12:00:00 - 18.01.2019 12:00:00 (GMT)Mildenhall Royal Air Force Bas, Grande-Bretagne (3577): reduced air pressure: 12.01.2019 12:00:00 - 18.01.2019 12:00:00 (GMT)Mildenhall Royal Air Force Bas, Grande-Bretagne (3577): visibility: 12.01.2019 12:00:00 - 18.01.2019 12:00:00 (GMT)Mildenhall Royal Air Force Bas, Grande-Bretagne (3577): Quantités de précipitations: 12.01.2019 12:00:00 - 18.01.2019 12:00:00 (GMT)
Date & Time tt [°C] td [°C] ff [km/h] ff [knt] fx [km/h] fx [knt] dd ppp [hPa] vv [km] rr [mm]
18.01.2019 12:00:00 - - - - - - - - - -
18.01.2019 11:00:00 2,1 2,1 11 6 - - SSE 1017,6 10 -
18.01.2019 10:00:00 0,4 0,4 9 5 - - SSE 1017,6 10 -
18.01.2019 09:00:00 -1,4 -1,4 5 3 - - SE 1017,6 10 -
18.01.2019 08:00:00 -2,4 -2,4 9 5 - - ESE 1017,6 10 -
18.01.2019 07:00:00 -2,0 -2,0 0 0 - - N 1017,3 10 -
18.01.2019 06:00:00 -2,1 -2,1 0 0 - - N 1017,6 10 -
18.01.2019 05:00:00 -2,0 -2,0 0 0 - - N 1017,6 10 -
18.01.2019 04:00:00 -2,1 -2,1 0 0 - - N 1018,0 10 -
18.01.2019 03:00:00 -2,1 -2,1 8 4 - - WSW 1018,3 10 -
18.01.2019 02:00:00 -2,1 -2,1 5 3 - - SW 1018,3 10 -
18.01.2019 01:00:00 -1,8 -1,8 5 3 - - WSW 1018,0 10 -
18.01.2019 00:00:00 -2,2 -2,2 8 4 - - SSW 1018,3 10 -
17.01.2019 23:00:00 -1,8 -1,8 5 3 - - W 1018,0 10 -
17.01.2019 22:00:00 -1,4 -1,4 9 5 - - WSW 1017,6 10 -
17.01.2019 21:00:00 -0,5 -0,5 11 6 - - W 1016,9 10 -
17.01.2019 20:00:00 0,2 0,2 15 8 - - W 1016,3 10 -
17.01.2019 19:00:00 1,0 1,0 21 11 - - WNW 1016,3 10 -
17.01.2019 18:00:00 0,8 0,8 11 6 - - WNW 1014,9 10 -
17.01.2019 17:00:00 2,3 2,2 15 8 - - WNW 1014,6 10 -
17.01.2019 16:00:00 3,7 1,7 18 10 - - NW 1013,6 10 -
17.01.2019 15:00:00 4,2 1,4 15 8 - - NW - 10 -
17.01.2019 14:00:00 3,9 0,8 22 12 - - NW - 10 -
17.01.2019 13:00:00 3,5 -0,3 21 11 - - NW - 10 -
17.01.2019 12:00:00 3,4 -0,2 24 13 - - NW 1010,2 10 -
17.01.2019 11:00:00 2,6 0,2 26 14 - - WNW 1009,5 10 -
17.01.2019 10:00:00 1,7 0,7 18 10 - - WNW 1008,8 10 -
17.01.2019 09:00:00 1,0 1,0 21 11 - - NW 1007,8 10 -
17.01.2019 08:00:00 1,0 1,0 11 6 48 26 NW 1006,4 10 0,0
17.01.2019 07:00:00 2,8 2,8 16 9 - - NW 1004,7 10 0,0
17.01.2019 06:00:00 2,5 2,5 15 8 - - WNW 1003,7 10 -
17.01.2019 05:00:00 1,9 1,9 16 9 - - WNW 1002,4 10 -
17.01.2019 04:00:00 3,3 3,3 13 7 - - W 1002,0 10 0,0
17.01.2019 03:00:00 4,0 4,0 - - - - - 1001,7 10 -
17.01.2019 02:00:00 4,0 4,0 - - - - - 1001,7 10 -
17.01.2019 01:00:00 3,0 3,0 13 7 - - WSW - 10 -
17.01.2019 00:00:00 - - - - - - - - - -
16.01.2019 23:00:00 2,8 2,8 15 8 - - SW 1001,7 10 -
16.01.2019 22:00:00 2,8 2,8 15 8 - - SW 1001,7 10 -
16.01.2019 21:00:00 2,9 2,9 13 7 - - SW 1001,3 10 -
16.01.2019 20:00:00 3,8 3,8 15 8 - - SW 1001,0 10 -
16.01.2019 19:00:00 4,5 4,5 13 7 - - WSW 1001,0 10 -
16.01.2019 18:00:00 4,9 4,9 11 6 - - WSW 1000,7 10 0,3
16.01.2019 17:00:00 5,3 5,3 16 9 - - WNW 1001,0 10 0,8
16.01.2019 16:00:00 6,1 6,1 26 14 - - WNW 1000,7 10 0,8
16.01.2019 15:00:00 9,4 9,4 28 15 50 27 WNW 999,6 3,6 -
16.01.2019 14:00:00 9,3 9,3 22 12 - - SSW 999,6 10 0,0
16.01.2019 13:00:00 9,2 9,2 26 14 - - SW 1000,7 10 0,3
16.01.2019 12:00:00 8,8 8,8 24 13 - - SSW 1001,7 10 0,0
16.01.2019 11:00:00 8,6 8,6 21 11 - - SSW 1003,0 6 0,3
16.01.2019 10:00:00 8,9 8,9 24 13 - - SSW 1003,7 10 -
16.01.2019 09:00:00 8,8 8,8 22 12 - - SSW 1004,0 10 -
16.01.2019 08:00:00 8,6 8,6 18 10 - - SW - 10 -
16.01.2019 07:00:00 8,7 8,7 22 12 - - SSW - 10 -
16.01.2019 06:00:00 8,9 8,9 24 13 - - SW - 10 -
16.01.2019 05:00:00 8,6 8,6 26 14 - - SSW 1006,8 10 -
16.01.2019 04:00:00 7,9 7,9 21 11 - - SW 1007,8 10 -
16.01.2019 03:00:00 7,5 7,5 21 11 - - SW 1008,5 10 -
16.01.2019 02:00:00 8,0 8,0 22 12 - - SW 1009,5 10 -
16.01.2019 01:00:00 7,9 7,9 18 10 - - SW 1010,5 10 -
16.01.2019 00:00:00 7,9 7,9 22 12 - - SW 1010,8 10 -
15.01.2019 23:00:00 7,9 7,9 16 9 - - SW 1011,8 10 -
15.01.2019 22:00:00 7,9 7,9 22 12 - - SW 1012,5 10 -
15.01.2019 21:00:00 - - - - - - - - - -
15.01.2019 20:00:00 8,1 8,1 18 10 - - SW 1013,5 10 -
15.01.2019 19:00:00 8,6 8,6 22 12 - - SW 1013,9 10 -
15.01.2019 18:00:00 8,5 8,5 22 12 - - SW 1014,2 10 -
15.01.2019 17:00:00 7,7 7,7 15 8 - - SW 1014,6 10 -
15.01.2019 16:00:00 7,5 7,5 15 8 - - SW 1015,2 10 -
15.01.2019 15:00:00 8,1 8,1 16 9 - - SW 1015,6 10 -
15.01.2019 14:00:00 9,8 9,8 24 13 - - WSW 1015,6 10 -
15.01.2019 13:00:00 9,7 9,4 24 13 - - WSW 1016,3 10 -
15.01.2019 12:00:00 9,7 8,9 28 15 - - SW 1016,9 10 -
15.01.2019 11:00:00 8,8 8,8 26 14 - - WSW 1017,6 10 -
15.01.2019 10:00:00 7,3 7,3 26 14 - - WSW 1017,9 10 -
15.01.2019 09:00:00 5,9 5,9 18 10 - - SW 1018,0 10 -
15.01.2019 08:00:00 4,9 4,9 21 11 - - WSW 1018,0 10 -
15.01.2019 07:00:00 4,1 4,1 16 9 - - WSW 1018,3 10 -
15.01.2019 06:00:00 3,7 3,7 16 9 - - WSW 1018,6 10 -
15.01.2019 05:00:00 3,0 3,0 13 7 - - NNW 1019,0 10 -
15.01.2019 04:00:00 2,9 2,9 16 9 - - WSW 1019,3 10 -
15.01.2019 03:00:00 3,0 3,0 15 8 - - NNW 1019,6 10 -
15.01.2019 02:00:00 2,7 2,7 13 7 - - WSW 1020,3 10 -
15.01.2019 01:00:00 2,8 2,8 13 7 - - WSW 1020,7 10 -
15.01.2019 00:00:00 4,3 4,3 15 8 - - W 1021,0 10 -
14.01.2019 23:00:00 5,4 5,4 15 8 - - W 1021,3 10 -
14.01.2019 22:00:00 4,6 4,6 13 7 - - WSW 1021,0 10 -
14.01.2019 21:00:00 4,7 4,7 11 6 - - W 1021,3 10 -
14.01.2019 20:00:00 4,9 4,9 13 7 - - WSW 1021,0 10 -
14.01.2019 19:00:00 4,5 4,5 11 6 - - WSW 1021,3 10 -
14.01.2019 18:00:00 3,4 3,4 5 3 - - SW 1021,0 10 -
14.01.2019 17:00:00 5,9 5,9 11 6 - - W 1021,3 10 -
14.01.2019 16:00:00 6,2 6,2 5 3 - - WNW 1021,0 10 -
14.01.2019 15:00:00 8,2 7,4 11 6 - - WNW 1020,3 10 -
14.01.2019 14:00:00 7,7 7,7 13 7 - - NW 1020,0 10 0,0
14.01.2019 13:00:00 7,3 7,3 11 6 - - NW 1020,0 10 0,0
14.01.2019 12:00:00 7,5 7,5 16 9 - - WNW 1020,0 10 -
14.01.2019 11:00:00 7,2 7,2 13 7 - - WNW 1019,6 10 -
14.01.2019 10:00:00 6,3 6,3 9 5 - - WNW 1019,0 10 -
14.01.2019 09:00:00 5,0 5,0 15 8 - - WNW 1018,3 10 -
14.01.2019 08:00:00 4,1 4,1 11 6 - - WNW 1017,6 10 -
14.01.2019 07:00:00 3,7 3,7 13 7 - - W 1016,6 10 -
14.01.2019 06:00:00 4,7 4,7 16 9 - - WNW 1015,6 10 -
14.01.2019 05:00:00 4,9 4,9 21 11 - - WNW 1014,9 10 -
14.01.2019 04:00:00 4,4 4,4 15 8 - - W 1014,6 10 -
14.01.2019 03:00:00 5,2 5,2 21 11 - - W 1013,9 10 -
14.01.2019 02:00:00 5,3 5,3 18 10 - - WNW 1013,2 10 -
14.01.2019 01:00:00 6,0 6,0 22 12 - - WNW 1012,5 10 -
14.01.2019 00:00:00 6,6 6,6 26 14 - - WNW 1011,8 10 -
13.01.2019 23:00:00 6,7 6,7 24 13 - - WNW 1011,2 10 -
13.01.2019 22:00:00 7,1 7,0 26 14 - - WNW 1010,8 10 -
13.01.2019 21:00:00 6,7 6,7 21 11 - - WNW 1010,5 10 -
13.01.2019 20:00:00 7,8 6,6 22 12 - - WNW 1009,8 10 -
13.01.2019 19:00:00 9,1 8,3 22 12 - - WNW 1009,5 10 0,0
13.01.2019 18:00:00 9,6 9,6 28 15 - - WNW 1008,8 10 0,5
13.01.2019 17:00:00 10,8 10,8 35 19 - - WNW 1008,1 10 -
13.01.2019 16:00:00 10,5 10,5 18 10 - - W 1007,8 10 -
13.01.2019 15:00:00 10,0 10,0 22 12 - - W 1008,4 10 0,0
13.01.2019 14:00:00 9,9 9,9 28 15 52 28 W 1008,8 10 0,0
13.01.2019 13:00:00 10,9 10,9 37 20 50 27 W 1008,4 10 -
13.01.2019 12:00:00 10,7 10,7 37 20 52 28 W 1009,8 10 -
13.01.2019 11:00:00 10,6 10,6 37 20 - - W 1010,5 10 -
13.01.2019 10:00:00 10,1 10,1 26 14 - - W 1010,8 10 -
13.01.2019 09:00:00 10,2 10,2 24 13 - - W 1010,8 10 -
13.01.2019 08:00:00 10,2 10,2 22 12 - - W 1011,8 10 -
13.01.2019 07:00:00 10,1 10,1 24 13 - - W 1011,8 10 -
13.01.2019 06:00:00 10,2 10,2 28 15 - - W 1012,2 10 -
13.01.2019 05:00:00 9,9 9,9 22 12 - - W 1012,5 10 -
13.01.2019 04:00:00 10,2 10,2 31 17 - - W 1013,2 10 -
13.01.2019 03:00:00 10,6 10,6 24 13 - - W 1013,5 10 -
13.01.2019 02:00:00 10,8 10,8 29 16 - - W 1014,2 10 -
13.01.2019 01:00:00 10,7 10,7 35 19 48 26 W 1014,5 10 -
13.01.2019 00:00:00 10,7 10,7 34 18 - - W 1014,9 10 -
12.01.2019 23:00:00 10,2 10,2 28 15 - - W 1015,2 10 -
12.01.2019 22:00:00 9,0 9,0 24 13 - - W 1015,6 10 -
12.01.2019 21:00:00 8,5 8,5 22 12 - - WSW 1015,9 10 -
12.01.2019 20:00:00 8,5 8,5 22 12 - - W 1016,2 10 -
12.01.2019 19:00:00 8,3 8,3 28 15 - - W 1016,9 10 -
12.01.2019 18:00:00 8,1 8,1 22 12 - - W 1017,3 10 -
12.01.2019 17:00:00 8,5 8,5 28 15 - - W 1017,3 10 -
12.01.2019 16:00:00 8,8 8,8 28 15 48 26 W 1017,6 10 -
12.01.2019 15:00:00 9,1 9,1 28 15 - - W 1017,6 10 -
12.01.2019 14:00:00 9,4 9,4 29 16 - - W 1017,6 10 -
12.01.2019 13:00:00 9,4 9,4 28 15 - - W 1018,6 10 -
12.01.2019 12:00:00 9,2 9,2 31 17 - - W 1019,3 10 -

tt = Température de l'air
td = dewpoint
ff = Vitesse du vent
fx = gusts
dd = Direction du vent
ppp = reduced air pressure
vv = visibility
rr = Quantités de précipitations

stations d'obs. à proximité